[[{"header":{"parameterUnit":"m.s-1","parameterCategory":1,"la1":30.2991,"la2":30.254,"lo1":-89.0895,"lo2":-89.0444,"dy":0.0017,"dx":0.0017,"nx":28,"ny":28,"refTime":"2023-09-05T21:00:00:Z","depth":0,"parameterNumber":2,"parameterNumberName":"U-component_of_WINDS"},"data":[0,0,0,0,0,0,0,0,0,0,0,0,0,0,0,0,0,0,0,0,0,0,0,0,0,0,0,0,0,0,0,0,0,0,0,0,0,0,0,0,0,0,0,0,0,0,0,0,0,0,0,0,0,0,0,0,0,0,-3.7474,-3.7474,0,-3.7418,-3.7418,-3.7417,-3.7331,-3.7329,-3.7328,-3.7326,-3.7268,-3.7268,-3.7267,0,0,0,0,0,0,0,0,0,0,0,0,0,-3.7507,-3.7507,-3.7474,-3.7474,-3.7473,-3.7418,-3.7418,-3.7417,-3.7331,-3.7329,-3.7327,-3.7326,-3.7268,-3.7268,-3.7267,0,0,0,0,0,0,0,0,0,0,0,0,0,-3.7476,-3.7507,-3.7474,-3.7424,-3.7418,-3.7419,-3.7418,-3.7417,-3.7331,-3.7329,-3.7327,-3.7325,-3.7268,-3.7268,-3.7267,-3.7312,0,0,-3.7267,-3.7267,0,0,0,0,0,0,0,0,-3.7478,-3.7475,-3.7432,-3.7427,-3.7421,-3.7379,-3.7407,-3.7382,-3.7332,-3.7364,-3.7326,-3.7324,-3.7307,-3.7303,-3.7297,-3.7309,-3.7307,-3.7267,-3.7267,-3.7267,-3.7266,0,0,0,0,0,0,0,-3.748,-3.7477,-3.7452,-3.7431,-3.7425,-3.7403,-3.7397,-3.7402,-3.7349,-3.7361,-3.7355,-3.735,-3.7303,-3.7298,-3.7295,-3.7306,-3.7267,-3.7267,-3.7266,-3.7266,-3.7352,-3.7354,0,0,0,0,0,0,-3.749,-3.7479,-3.7454,-3.745,-3.7445,-3.7405,-3.7397,-3.7395,-3.7349,-3.734,-3.7352,-3.7346,-3.7299,-3.7296,-3.7293,-3.7341,-3.7267,-3.7266,-3.7266,-3.7349,-3.7352,-3.7355,0,0,0,0,0,0,-3.7491,-3.7488,-3.7456,-3.7463,-3.7457,-3.7407,-3.7405,-3.7395,-3.739,-3.7341,-3.7331,-3.7356,-3.7297,-3.7293,-3.7308,-3.7338,-3.7266,-3.7266,-3.7347,-3.735,-3.7354,-3.744,0,0,0,0,0,0,-3.7492,-3.7489,-3.7506,-3.7464,-3.7457,-3.7472,-3.7407,-3.7396,-3.739,-3.7382,-3.7343,-3.7334,-3.7295,-3.7309,-3.7308,-3.7337,-3.7266,-3.7343,-3.7348,-3.7352,-3.7434,-3.7446,-3.7456,0,0,0,0,0,-3.7494,-3.7532,-3.7507,-3.7504,-3.7477,-3.7474,-3.747,-3.7425,-3.7393,-3.7408,-3.7378,-3.7335,-3.7336,-3.7311,-3.7309,-3.7339,-3.7341,-3.7347,-3.7352,-3.7429,-3.7443,-3.7456,0,0,0,0,0,0,-3.7578,-3.7525,-3.7497,-3.7523,-3.7504,-3.746,-3.7478,-3.7442,-3.7431,-3.7424,-3.7368,-3.736,-3.7382,-3.7362,-3.7335,-3.7379,-3.7332,-3.7337,-3.7391,-3.7404,-3.7415,-3.7418,-3.7266,0,0,0,0,0,-3.76,-3.7602,-3.7556,-3.7584,-3.7576,-3.7529,-3.7526,-3.7494,-3.7471,-3.7462,-3.7432,-3.7412,-3.7407,-3.7405,-3.7398,-3.7432,-3.7421,-3.7451,-3.7462,-3.7471,-3.7476,-3.7491,-3.7503,-3.7372,-3.7372,-3.7372,0,0,-3.7644,-3.7616,-3.7621,-3.76,-3.7581,-3.7585,-3.7523,-3.7529,-3.7531,-3.7463,-3.7474,-3.7453,-3.7426,-3.745,-3.7459,-3.7434,-3.751,-3.7478,-3.7486,-3.7485,-3.7498,-3.751,-3.7521,-3.7376,-3.7375,-3.7375,0,0,-3.7726,-3.7706,-3.7726,-3.7709,-3.7682,-3.7651,-3.7656,-3.7618,-3.76,-3.7612,-3.7561,-3.7562,-3.7556,-3.7539,-3.7529,-3.7608,-3.7568,-3.7607,-3.7664,-3.7679,-3.769,-3.7698,-3.7725,-3.7735,-3.7612,-3.7613,-3.7613,0,-3.7785,-3.7788,-3.7741,-3.7751,-3.7743,-3.7683,-3.7703,-3.7688,-3.766,-3.7656,-3.7629,-3.762,-3.7598,-3.7617,-3.7636,-3.7631,-3.7634,-3.761,-3.7692,-3.77,-3.7708,-3.7732,-3.7743,-3.7617,-3.7617,-3.7616,-3.7616,0,-3.7861,-3.7864,-3.7884,-3.7858,-3.7853,-3.7868,-3.7823,-3.7824,-3.7792,-3.7764,-3.7777,-3.7749,-3.7735,-3.7737,-3.7707,-3.7752,-3.7737,-3.7702,-3.7653,-3.7726,-3.7748,-3.7757,-3.7624,-3.7623,-3.7621,-3.762,0,0,-3.7991,-3.7942,-3.7949,-3.7937,-3.7903,-3.7905,-3.7917,-3.7904,-3.7905,-3.7889,-3.7897,-3.7894,-3.7861,-3.7851,-3.7818,-3.7832,-3.7894,-3.7795,-3.7793,-3.7813,-3.7941,-3.7966,-3.7978,-3.7869,-3.7871,-3.7872,-3.7943,0,-3.8065,-3.8083,-3.8042,-3.807,-3.8072,-3.8017,-3.8027,-3.8008,-3.7983,-3.7981,-3.7953,-3.7951,-3.7909,-3.7902,-3.7914,-3.7884,-3.7919,-3.7879,-3.7875,-3.7875,-3.788,-3.7989,-3.8015,-3.8083,-3.7951,-3.7953,-3.7954,0,-3.8153,-3.8141,-3.8169,-3.8134,-3.8134,-3.8144,-3.8129,-3.8129,-3.8106,-3.8086,-3.8076,-3.8038,-3.8047,-3.8002,-3.8014,-3.7988,-3.7984,-3.797,-3.7971,-3.7967,-3.7917,-3.7986,-3.8104,-3.8113,-3.7967,-3.7966,-3.7965,0,-3.8243,-3.8235,-3.825,-3.8242,-3.8202,-3.821,-3.8194,-3.8169,-3.8164,-3.8152,-3.8148,-3.8137,-3.813,-3.8122,-3.8082,-3.8053,-3.8098,-3.805,-3.8081,-3.8082,-3.809,-3.809,-3.8207,-3.8093,-3.8093,-3.8092,-3.8092,0,-3.8328,-3.8347,-3.829,-3.83,-3.8319,-3.8273,-3.8294,-3.8272,-3.825,-3.8254,-3.8207,-3.8211,-3.8159,-3.8158,-3.8127,-3.8141,-3.8138,-3.8122,-3.8113,-3.8125,-3.8127,-3.812,-3.8113,-3.8095,-3.8094,-3.8094,-3.8093,0,-3.8431,-3.8394,-3.8407,-3.8369,-3.836,-3.8376,-3.8343,-3.835,-3.8323,-3.8328,-3.8327,-3.8284,-3.828,-3.8241,-3.8228,-3.8207,-3.8232,-3.8216,-3.824,-3.8233,-3.8266,-3.8263,-3.8381,-3.8393,-3.8273,-3.8275,-3.8276,0,-3.8487,-3.85,-3.8464,-3.8463,-3.8449,-3.8449,-3.8444,-3.8399,-3.8396,-3.8372,-3.8382,-3.8374,-3.8366,-3.8363,-3.833,-3.832,-3.8301,-3.8344,-3.8299,-3.8311,-3.8299,-3.8298,-3.8298,-3.8352,-3.8354,-3.8355,-3.8356,0,-3.8588,-3.857,-3.8564,-3.8553,-3.8549,-3.8538,-3.8523,-3.8526,-3.8477,-3.8475,-3.8471,-3.8465,-3.8453,-3.8446,-3.8431,-3.8413,-3.8376,-3.8371,-3.8377,-3.8387,-3.84,-3.8392,-3.8263,-3.8367,-3.8366,-3.8365,-3.8365,-3.8364,-3.8667,-3.8677,-3.8652,-3.8648,-3.8633,-3.8622,-3.8626,-3.86,-3.8596,-3.8583,-3.8557,-3.8557,-3.8534,-3.851,-3.8496,-3.8495,-3.8473,-3.8482,-3.8484,-3.8487,-3.8492,-3.8403,-3.8492,-3.8492,-3.8492,-3.8491,-3.8491,0,-3.8765,-3.8747,-3.8744,-3.8726,-3.8723,-3.869,-3.8673,-3.8672,-3.8673,-3.8655,-3.8648,-3.8644,-3.8637,-3.8605,-3.8594,-3.86,-3.8582,-3.8598,-3.8596,-3.8592,-3.8514,-3.8508,-3.8612,-3.8612,-3.8612,-3.8612,-3.8612,-3.8612,-3.8815,-3.8828,-3.8807,-3.8813,-3.8795,-3.8794,-3.8787,-3.8776,-3.8762,-3.8759,-3.8753,-3.8733,-3.8709,-3.8697,-3.8689,-3.868,-3.8677,-3.8698,-3.8683,-3.861,-3.8598,-3.8587,-3.8581,-3.8699,-3.8699,-3.8761,-3.8762,-3.8763]},{"header":{"parameterUnit":"m.s-1","parameterCategory":1,"la1":30.2991,"la2":30.254,"lo1":-89.0895,"lo2":-89.0444,"dy":0.0017,"dx":0.0017,"nx":28,"ny":28,"refTime":"2023-09-05T21:00:00:Z","depth":0,"parameterNumber":3,"parameterNumberName":"V-component_of_WINDS"},"data":[0,0,0,0,0,0,0,0,0,0,0,0,0,0,0,0,0,0,0,0,0,0,0,0,0,0,0,0,0,0,0,0,0,0,0,0,0,0,0,0,0,0,0,0,0,0,0,0,0,0,0,0,0,0,0,0,0,0,2.5439,2.544,0,2.5554,2.5556,2.5557,2.565,2.565,2.5651,2.5652,2.577,2.5772,2.5774,0,0,0,0,0,0,0,0,0,0,0,0,0,2.5298,2.53,2.5438,2.544,2.5441,2.5554,2.5556,2.5557,2.5649,2.565,2.5652,2.5653,2.5769,2.5772,2.5774,0,0,0,0,0,0,0,0,0,0,0,0,0,2.5381,2.5301,2.5438,2.5501,2.5508,2.5554,2.5556,2.5558,2.5649,2.5651,2.5652,2.5653,2.5768,2.5771,2.5775,2.5767,0,0,2.5785,2.5786,0,0,0,0,0,0,0,0,2.5376,2.5386,2.549,2.5497,2.5504,2.5589,2.5549,2.5628,2.5649,2.5595,2.5652,2.5654,2.5708,2.5717,2.5735,2.5773,2.5778,2.5785,2.5787,2.5789,2.579,0,0,0,0,0,0,0,2.537,2.5381,2.5484,2.5492,2.55,2.5523,2.5537,2.5565,2.5642,2.56,2.5607,2.562,2.5712,2.5732,2.5739,2.578,2.5785,2.5788,2.579,2.5792,2.5819,2.5818,0,0,0,0,0,0,2.5354,2.5376,2.5481,2.5488,2.5442,2.5525,2.554,2.556,2.5642,2.5656,2.5618,2.5624,2.5725,2.5735,2.5743,2.5741,2.5789,2.5792,2.5794,2.582,2.5819,2.5817,0,0,0,0,0,0,2.5351,2.5363,2.5476,2.5434,2.545,2.5526,2.5548,2.5562,2.5581,2.5656,2.5671,2.5624,2.5727,2.5738,2.5761,2.5746,2.5793,2.5797,2.5822,2.582,2.5818,2.5735,0,0,0,0,0,0,2.5347,2.5361,2.5359,2.5433,2.5452,2.5491,2.5547,2.5563,2.5587,2.5595,2.5665,2.5678,2.5729,2.5756,2.5764,2.5752,2.5799,2.5823,2.5821,2.5818,2.574,2.5731,2.5723,0,0,0,0,0,2.5341,2.5331,2.5358,2.537,2.5451,2.549,2.5501,2.556,2.5585,2.5584,2.5632,2.5676,2.5747,2.5757,2.5768,2.5756,2.5824,2.5821,2.5819,2.5743,2.5733,2.5723,0,0,0,0,0,0,2.5252,2.5341,2.5373,2.5386,2.543,2.5506,2.5506,2.5546,2.5584,2.559,2.5661,2.5676,2.5691,2.5726,2.5736,2.5754,2.5791,2.579,2.573,2.5721,2.5713,2.5704,2.5802,0,0,0,0,0,2.5234,2.5259,2.5336,2.534,2.536,2.5429,2.5448,2.549,2.5539,2.5557,2.5608,2.5652,2.5685,2.5705,2.5739,2.5746,2.5763,2.5743,2.5735,2.5727,2.5726,2.5733,2.5725,2.5807,2.5807,2.5808,0,0,2.5197,2.5249,2.526,2.5323,2.5362,2.5386,2.5444,2.5467,2.5486,2.5561,2.5586,2.5624,2.5679,2.5694,2.5703,2.5723,2.5707,2.5724,2.5717,2.572,2.5729,2.5721,2.5714,2.5805,2.5806,2.5806,0,0,2.5141,2.5183,2.5191,2.5229,2.5288,2.5334,2.5336,2.5406,2.5435,2.5461,2.5518,2.5542,2.5596,2.5634,2.5659,2.562,2.5661,2.5629,2.5585,2.5592,2.5585,2.558,2.5566,2.556,2.5627,2.5627,2.5627,0,2.5087,2.5126,2.519,2.521,2.5237,2.5307,2.5316,2.535,2.5416,2.5433,2.5455,2.5526,2.5568,2.5593,2.5584,2.5602,2.5607,2.5621,2.5581,2.5576,2.5572,2.556,2.5554,2.5623,2.5623,2.5623,2.5624,0,2.5057,2.5084,2.5083,2.5146,2.5173,2.5187,2.5254,2.5273,2.5313,2.5357,2.5383,2.5436,2.5483,2.5492,2.5531,2.5523,2.5534,2.5567,2.5606,2.5559,2.5548,2.5544,2.5616,2.5618,2.5619,2.562,0,0,2.4948,2.5047,2.5046,2.5076,2.5146,2.5168,2.5186,2.5232,2.5248,2.5291,2.5309,2.5354,2.5386,2.5416,2.5459,2.5465,2.5431,2.5498,2.5501,2.5484,2.5426,2.54,2.5394,2.5459,2.5458,2.5458,2.5422,0,2.4903,2.494,2.4998,2.5016,2.5041,2.5109,2.5125,2.517,2.5212,2.524,2.5286,2.5317,2.5357,2.5375,2.5384,2.5433,2.542,2.5436,2.5476,2.5477,2.546,2.5388,2.5361,2.5324,2.5418,2.5417,2.5417,0,2.4856,2.4897,2.4917,2.4987,2.4999,2.5013,2.506,2.5086,2.5139,2.5169,2.5203,2.5251,2.5274,2.531,2.5343,2.5353,2.5373,2.54,2.54,2.5405,2.5443,2.5392,2.5313,2.5307,2.5411,2.5411,2.5412,0,2.4774,2.4834,2.4854,2.4878,2.496,2.4967,2.5002,2.5056,2.5081,2.5123,2.5139,2.5183,2.5207,2.524,2.5299,2.5319,2.5326,2.5366,2.5352,2.535,2.5349,2.5349,2.5273,2.5362,2.5362,2.5362,2.5362,0,2.4719,2.4728,2.4819,2.4831,2.4844,2.4912,2.4923,2.4964,2.5012,2.5034,2.5095,2.5114,2.5191,2.5219,2.5265,2.5286,2.5296,2.5322,2.5334,2.5316,2.5313,2.533,2.5334,2.5361,2.5361,2.5362,2.5362,0,2.4629,2.469,2.4717,2.4792,2.4812,2.4818,2.4883,2.4898,2.4944,2.497,2.4981,2.5053,2.5089,2.5152,2.5206,2.5237,2.5249,2.527,2.5231,2.5238,2.5221,2.5221,2.5153,2.5148,2.524,2.5239,2.5238,0,2.4589,2.4599,2.4676,2.4695,2.4727,2.4757,2.4782,2.485,2.4874,2.4936,2.4943,2.4985,2.5021,2.5077,2.5134,2.5176,2.5198,2.5172,2.5205,2.5187,2.5198,2.5197,2.5199,2.5163,2.5162,2.5161,2.516,0,2.4513,2.4543,2.4577,2.4622,2.4651,2.469,2.4732,2.4744,2.4821,2.4845,2.4884,2.4912,2.4968,2.5009,2.506,2.5096,2.5141,2.5149,2.5148,2.513,2.5107,2.512,2.521,2.515,2.5151,2.5152,2.5153,2.5153,2.4447,2.4459,2.4515,2.4552,2.4591,2.4629,2.4647,2.4695,2.4728,2.4779,2.4818,2.4853,2.4908,2.498,2.5014,2.5043,2.5064,2.5062,2.5062,2.506,2.5054,2.5103,2.5053,2.5053,2.5054,2.5054,2.5054,0,2.4374,2.4414,2.4447,2.4504,2.4533,2.4574,2.4623,2.4644,2.4675,2.4722,2.4757,2.4801,2.4841,2.4902,2.4947,2.4959,2.4981,2.4969,2.4968,2.4976,2.5033,2.5029,2.495,2.495,2.495,2.495,2.495,2.495,2.4339,2.4361,2.4398,2.444,2.4481,2.4516,2.4541,2.4576,2.4614,2.4661,2.4695,2.4735,2.4788,2.4837,2.4876,2.4893,2.4907,2.4888,2.4911,2.4962,2.4972,2.4981,2.4978,2.489,2.489,2.4853,2.4852,2.4852]}]]